Showing default

ARCSAT-1, 52161

Orbit data source: Space-Track

ARCSAT-1, 52161 is a payload satellite owned by NDRE (NO) in SSO that was launched on Fri, 01 Apr 2022 UTC via an FALCON 9 launch vehicle from the Air Force Eastern Test Range (AFETR). Payload-class satellites include a variety of spacecraft equipped with specific instruments for various scientific and technological missions. These include communications satellites like Starlink; space stations such as the ISS; scientific satellites like the Hubble; Earth observation satellites from companies like Planet Labs, Umbra, and HawkEye 360; GPS; miniature CubeSats for education and research; and military/defense satellites.

Loading next visibility...
Identifier
52161, 2022-033E
Orbit
SSO
Country
Flag of NONO / NOR
Related business
Manufacturer
GOMSpace
Mission
Operational Defense Communications
Bus & Motor
CUBESAT 6U, Unknown motor
Mass
~10 kg wet, ~10 kg dry
Launch date (UTC)
2022-04-01 (4 years ago)
Launch vehicle
FALCON 9
Launch site
Air Force Eastern Test Range (AFETR)
Object type
Payload
Rocket body
Debris
Shape & HBR
Box, 0.1 m
Radar Cross Section
0.080 m², Small (<0.1 m²)

Expand to show TLE details & history
Last TLE update: 1 day ago

TLE from 1 day ago
0 ARCSAT-1
1 52161U 22033E   25348.80937010  .00010412  00000-0  19797-3 0  9999
2 52161  97.2835  74.0316 0006204 134.7071 225.4687 15.48416070207129
Epoch: 2025-12-14T19:25Z
TLE epoch observation values (Epoch: 2025-12-14T19:25:29.576Z)
Latitude
0.00006°
Longitude
58.9414°
Altitude
427.452 km
Speed
7.653 km/s
True Right ascension
04h 56m 07s
True Declination
0° 00' 00"
Sunlit
Object was in full shadow at epoch
Visualization orbit readout
Latitude
Unknown
Longitude
Unknown
Altitude
Unknown
Speed
Unknown
Apparent Right ascension
Unknown
Apparent Declination
Unknown
Sunlit
N/A
Visualization observer readout
Local Sidereal Time
19:04:18
Azimuth
Unknown
Elevation
Unknown
Doppler factor
Unknown
Orbital elements
Apogee altitude
422.498 km
Perigee altitude
414.065 km
Semi-major axis
6,796.419 km
Eccentricity
0.00062
Inclination
97.2835°
RAAN
74.0316°
Arg. of periapsis
134.7071°
True anomaly
225.41805°
Mean anomaly
225.4687°
Eccentric anomaly
225.44337°
Mean motion
3.87367 °/min
Orbital period
92.94 mins
BSTAR
0.00019797
Loading maneuver chart data...
Computing Atmospheric mass density...
Loading historical data...
Loading historical data...
Loading historical data...
Loading historical data...
Loading historical data...
Loading historical data...
Loading historical data...

Documentation

Showing up to 5 results
|